Location: Ammerl�gen
(47.2167°N, 9.6000°E)
Time: 10:57:44
(UTC+00:00)

Cosmos 921 Rocket - Pass Details

Date: 21 April 2021
Orbit: 572 x 632 km, 75.8° (Epoch: 07 May)

Event Time Altitude Azimuth Distance (km) Brightness Sun altitude
Rises 20:54:06 0° 348° (NNW) 2,907 7.6 -22.3°
Reaches altitude 10° 20:56:38 10° 0° (N) 1,986 6.3 -22.5°
Maximum altitude 21:00:29 28° 60° (ENE) 1,148 4.3 -22.9°
Enters shadow 21:00:29 28° 61° (ENE) 1,148 4.3 -22.9°
